{"data":{"norad_id":69250,"epoch":"2026-09-20T00:08:02.836032Z","epoch_age_seconds":69692,"freshness":"FRESH","line1":"1 69250U 26117N   26263.00558838  .00023570  00000+0  70631-3 0  9991","line2":"2 69250  53.1555 155.8719 0001262  76.6790 283.4354 15.34410188 17596","mean_motion":15.34410188,"eccentricity":0.0001262,"inclination_deg":53.1555,"raan_deg":155.8719,"arg_perigee_deg":76.679,"mean_anomaly_deg":283.4354,"bstar":0.00070631,"rev_number":1759,"period_min":93.847134961802,"perigee_km":461.80964927474,"apogee_km":463.53626970852,"semimajor_km":6840.8099594916,"source":"CELESTRAK","updated_at":"2026-09-20T09:00:44.149762Z"}}